[[{"header":{"parameterUnit":"m.s-1","parameterCategory":1,"la1":30.2992,"la2":30.254,"lo1":-89.0895,"lo2":-89.0443,"dy":0.0025,"dx":0.0025,"nx":19,"ny":19,"refTime":"2026-03-17T03:00:00:Z","depth":0,"parameterNumber":2,"parameterNumberName":"U-component_of_WINDS"},"data":[0,0,0,1.4813,1.4814,1.4839,1.4839,1.4869,1.4869,0,0,0,0,0,0,0,0,0,0,0,1.4803,1.4803,1.4813,1.4814,1.4839,1.4839,1.4869,1.4869,0,0,0,0,0,0,0,0,0,0,0,1.4803,1.4803,1.4803,1.4814,1.4839,1.4839,1.4869,1.4851,0,0,0,0,0,0,0,0,0,0,1.4826,1.4815,1.4803,1.4803,1.4814,1.4839,1.4839,1.485,1.4852,1.4856,0,1.4859,0,1.4865,1.4871,1.4871,0,0,0,1.4815,1.4813,1.4822,1.4803,1.4814,1.4839,1.4828,1.4851,1.4853,1.4859,1.4859,1.4861,1.4865,1.4871,1.4871,1.489,1.489,0,0,1.4814,1.4807,1.4821,1.4824,1.4819,1.4827,1.4829,1.4853,1.4853,1.4859,1.4861,1.4866,1.4871,1.4872,1.489,1.489,0,0,0,1.4809,1.4805,1.4814,1.4822,1.4827,1.4828,1.483,1.4852,1.4855,1.4862,1.4866,1.4872,1.4872,1.489,1.489,1.4883,0,0,0,1.4808,1.4803,1.4813,1.4809,1.4827,1.484,1.4829,1.4854,1.4856,1.4866,1.4872,1.4872,1.489,1.489,1.4884,1.4881,0,0,0,1.4802,1.4802,1.4805,1.4809,1.482,1.484,1.4844,1.4854,1.4859,1.4871,1.4872,1.489,1.489,1.4884,1.4882,1.4884,0,0,0,1.4794,1.4798,1.4805,1.4811,1.4819,1.4835,1.4844,1.4857,1.4866,1.4872,1.489,1.489,1.4884,1.4882,1.4884,1.4885,1.4885,0,0,1.4795,1.4798,1.4803,1.4809,1.4822,1.4832,1.4845,1.486,1.4868,1.4882,1.4883,1.4883,1.4882,1.4884,1.4886,1.4885,0,0,0,1.48,1.4803,1.4809,1.4818,1.483,1.4841,1.4855,1.4861,1.4874,1.4874,1.4886,1.4885,1.4886,1.4887,1.4887,1.4889,1.489,1.489,1.489,1.4791,1.4801,1.4809,1.4823,1.4832,1.4848,1.4856,1.4867,1.4874,1.4877,1.4881,1.488,1.4881,1.4881,1.4883,1.4882,1.4882,1.4882,1.4882,1.4793,1.4799,1.481,1.4822,1.4833,1.4843,1.4859,1.4864,1.4875,1.4878,1.488,1.4882,1.488,1.4882,1.4882,1.4882,1.4882,1.4882,1.4882,1.4788,1.4793,1.48,1.4815,1.4826,1.484,1.4851,1.486,1.4869,1.4872,1.4877,1.4877,1.4879,1.4874,1.4874,1.4874,1.4874,1.4874,1.4874,1.4779,1.4788,1.4796,1.481,1.4818,1.4829,1.4846,1.4854,1.4866,1.4872,1.4872,1.4879,1.4878,1.4877,1.4874,1.4874,1.4874,1.4874,1.4874,1.4777,1.4779,1.4791,1.4799,1.4817,1.4827,1.484,1.4856,1.4864,1.4869,1.4877,1.4874,1.4877,1.4878,1.4877,1.4874,1.4874,1.4874,1.4874,1.4772,1.4775,1.479,1.4802,1.4815,1.4828,1.4842,1.4855,1.487,1.4876,1.4878,1.4878,1.4878,1.4882,1.4882,1.4881,1.4879,1.4879,1.4879,1.4772,1.4777,1.4786,1.48,1.4816,1.4829,1.4842,1.4856,1.4873,1.488,1.488,1.488,1.4881,1.4881,1.4887,1.4887,1.4886,0,0]},{"header":{"parameterUnit":"m.s-1","parameterCategory":1,"la1":30.2992,"la2":30.254,"lo1":-89.0895,"lo2":-89.0443,"dy":0.0025,"dx":0.0025,"nx":19,"ny":19,"refTime":"2026-03-17T03:00:00:Z","depth":0,"parameterNumber":3,"parameterNumberName":"V-component_of_WINDS"},"data":[0,0,0,-3.492,-3.4922,-3.5013,-3.5013,-3.5124,-3.5125,0,0,0,0,0,0,0,0,0,0,0,-3.489,-3.4891,-3.492,-3.4922,-3.5013,-3.5013,-3.5124,-3.5125,0,0,0,0,0,0,0,0,0,0,0,-3.489,-3.4891,-3.4892,-3.4922,-3.5013,-3.5013,-3.5124,-3.5057,0,0,0,0,0,0,0,0,0,0,-3.4969,-3.4939,-3.4891,-3.4892,-3.4923,-3.5013,-3.5013,-3.5054,-3.5061,-3.5081,0,-3.5099,0,-3.5114,-3.5132,-3.5133,0,0,0,-3.4923,-3.4933,-3.4961,-3.4892,-3.4924,-3.5013,-3.4972,-3.5058,-3.5066,-3.5091,-3.51,-3.5105,-3.5116,-3.5133,-3.5134,-3.5248,-3.5249,0,0,-3.4918,-3.4905,-3.4955,-3.4966,-3.4953,-3.4969,-3.4975,-3.5063,-3.5072,-3.5101,-3.5107,-3.5118,-3.5134,-3.5135,-3.5248,-3.5248,0,0,0,-3.4903,-3.4901,-3.4926,-3.4961,-3.4978,-3.4972,-3.4979,-3.5068,-3.5078,-3.5108,-3.5119,-3.5134,-3.5136,-3.5247,-3.5248,-3.526,0,0,0,-3.49,-3.4892,-3.4924,-3.4917,-3.4976,-3.5024,-3.4982,-3.5072,-3.5082,-3.5118,-3.5134,-3.5137,-3.5247,-3.5248,-3.5259,-3.5268,0,0,0,-3.4885,-3.489,-3.4903,-3.4916,-3.4955,-3.5023,-3.5038,-3.5074,-3.5088,-3.5133,-3.5137,-3.5247,-3.5248,-3.5258,-3.5266,-3.5297,0,0,0,-3.4865,-3.4909,-3.4903,-3.4957,-3.4954,-3.503,-3.5037,-3.5094,-3.5134,-3.5135,-3.5247,-3.5248,-3.5257,-3.5265,-3.5296,-3.5322,-3.5331,0,0,-3.4913,-3.4915,-3.4948,-3.4945,-3.502,-3.5017,-3.5094,-3.5141,-3.5157,-3.5217,-3.522,-3.526,-3.5266,-3.5297,-3.5384,-3.5392,0,0,0,-3.4959,-3.4983,-3.5005,-3.5044,-3.5083,-3.5119,-3.5157,-3.5175,-3.5228,-3.5185,-3.5278,-3.5283,-3.5301,-3.5314,-3.5321,-3.5339,-3.5253,-3.5253,-3.5253,-3.5007,-3.5028,-3.5085,-3.5117,-3.5154,-3.5196,-3.5228,-3.526,-3.5266,-3.5288,-3.5306,-3.5357,-3.5372,-3.5377,-3.5395,-3.532,-3.532,-3.532,-3.532,-3.5082,-3.5121,-3.5133,-3.5193,-3.5214,-3.5264,-3.5306,-3.531,-3.536,-3.5344,-3.5361,-3.5344,-3.5384,-3.5402,-3.5321,-3.5321,-3.5321,-3.5321,-3.5321,-3.5118,-3.514,-3.5164,-3.5225,-3.5269,-3.5299,-3.5349,-3.5365,-3.538,-3.5397,-3.542,-3.542,-3.5424,-3.5407,-3.5407,-3.5407,-3.5408,-3.5408,-3.5408,-3.5146,-3.5172,-3.5213,-3.5262,-3.5291,-3.5331,-3.5375,-3.5403,-3.544,-3.5448,-3.5448,-3.5454,-3.5384,-3.5367,-3.5411,-3.541,-3.541,-3.541,-3.5409,-3.5217,-3.5205,-3.5267,-3.5297,-3.5357,-3.5402,-3.5424,-3.5482,-3.5508,-3.5532,-3.5535,-3.548,-3.5482,-3.5477,-3.5463,-3.5529,-3.5529,-3.5529,-3.5529,-3.5249,-3.5252,-3.5322,-3.5369,-3.5417,-3.5444,-3.5515,-3.555,-3.5584,-3.5602,-3.5595,-3.5578,-3.5572,-3.5577,-3.557,-3.5558,-3.5646,-3.5647,-3.5647,-3.5295,-3.5305,-3.5362,-3.5398,-3.5448,-3.549,-3.5559,-3.5612,-3.5647,-3.5652,-3.5617,-3.5612,-3.5585,-3.5574,-3.5578,-3.5567,-3.5544,0,0]}]]